Back to catalog

STARLINK-33932

AliveCommunicationsVLEO
NORAD 63775·PAYLOAD·🇺🇸 United States

Launched May 2, 2025 from Cape Canaveral Space Force Station

Loading…

Next Passes (next 24 hours)

TLE

FreshSource: CelesTrak SupGP

Epoch: Sep 14, 2026, 14:12 UTC

1 63775C 25091A   26257.59215278 -.00028189  00000+0 -10207-2 0  2574
2 63775  43.0041  65.5571 0001625 262.4091 114.5850 15.27600983    15

Track STARLINK-33932 in real time with AllMySat

Download on the App Store